Location: Härggis
(46.9540°N, 8.4897°E)
Time: 20:44:51
(UTC+00:00)

SME Rocket - Pass Details

Date: 27 May 2022
Orbit: 551 x 2650 km, 99.9° (Epoch: 03 July)

Event Time Altitude Azimuth Distance (km) Brightness Sun altitude
Exits shadow 01:03:26 38° 194° (SSW) 958 3.5 -18.1°
Maximum altitude 01:04:50 61° 258° (WSW) 753 3.2 -18.0°
Drops below altitude 10° 01:09:56 10° 339° (NNW) 2,483 6.7 -17.7°
Sets 01:12:47 0° 343° (NNW) 3,693 7.7 -17.4°
